Regional Weather Roundup
Issued by NWS Sioux Falls, SD

Home | Current Version | Previous Version | Graphics & Text | Print | Product List | Glossary Off
Versions: 1 2 3 4 5 6 7 8 9 10 11 12 13 14 15 16 17 18 19 20 21 22 23 24 25 26 27 28 29 30 31 32 33 34 35 36 37 38 39 40 41 42 43 44 45 46 47 48 49 50

000
ASUS43 KFSD 281010
RWRFSD

WEATHER ROUNDUP FOR SE SOUTH DAKOTA/SW MINNESOTA/NW IOWA
NATIONAL WEATHER SERVICE SIOUX FALLS SD
500 AM CDT THU AUG 28 2014

NOTE: "FAIR" INDICATES FEW OR NO CLOUDS BELOW 12,000 FEET WITH NO
SIGNIFICANT WEATHER AND OR OBSTRUCTIONS TO VISIBILITY.


SDZ038>040-050-052>070-281100-
SOUTHEAST SOUTH DAKOTA

CITY           SKY/WX    TMP DP  RH WIND       PRES   REMARKS
CHAMBERLAIN    CLOUDY    66  66  98 E8        29.94F
HURON          LGT RAIN  67  66  97 SE7       29.95F
MADISON        LGT RAIN  64  64 100 SE8       30.00F
MITCHELL       CLOUDY    68  67  96 SE8       29.96F
SIOUX FALLS    CLOUDY    67  65  93 SE10      29.99F
WINNER         CLOUDY    68  67  96 E8        29.93F
YANKTON        CLOUDY    68  66  94 E8        29.96F
$$

MNZ071-072-080-081-089-090-097-098-281100-
SOUTHWEST MINNESOTA

CITY           SKY/WX    TMP DP  RH WIND       PRES   REMARKS
FAIRMONT       CLOUDY    61  57  88 SE7       30.05F
JACKSON        CLOUDY    63  59  88 SE7       30.05F
LUVERNE        CLOUDY    68  63  83 E6        30.01F
MARSHALL       CLOUDY    64  57  77 SE9       30.02F
MONTEVIDEO     CLOUDY    63  61  94 S5        30.04F
PIPESTONE      DRIZZLE   64  63  94 SE7       30.02F
REDWOOD FALLS  MOCLDY    63  59  87 SE9       30.04F
TRACY          CLOUDY    64  61  89 SE6       30.04S
WINDOM         MOCLDY    63  61  94 SE6       30.05S
WORTHINGTON    CLOUDY    64  63  94 E6        30.04F
$$

IAZ001>003-012>014-020>022-031-032-NEZ013-014-SDZ071-281100-
NORTHWEST IOWA

CITY           SKY/WX    TMP DP  RH WIND       PRES   REMARKS
DENISON        CLOUDY    68  68 100 SE6       30.00S
ESTHERVILLE    CLOUDY    63  61  93 SE8       30.04F
LE MARS        DRIZZLE   68  68 100 VRB6      29.99F
ORANGE CITY    LGT RAIN  70  66  88 SE6       30.00F
SHELDON        CLOUDY    66  66 100 SE8       30.00F
SIOUX CITY     LGT RAIN  69  67  93 SE8       29.99S
SPENCER        CLOUDY    66  62  87 E9        30.03F
STORM LAKE     DRIZZLE   66  66 100 SE8       30.02F
$$

ABBREVIATIONS USED IN REMARKS
   TC - TEMPERATURE IN CELSIUS
  WCI - WIND CHILL INDEX
   HX - HEAT INDEX
  VSB - VISIBILITY




USA.gov is the U.S. government's official web portal to all federal, state and local government web resources and services.